[TLELIST] Archives

 

[TLELIST] Current TLEs

January 27th 2024 PST

HST 1 20580U 90037B 24026.79034837 .00006201 00000-0 30715-3 0 9997 2 20580 28.4667 217.6279 0002353 294.7985 65.2362 15.15700529655657 ISS (ZARYA) 1 25544U 98067A 24027.19735782 .00020113 00000-0 35977-3 0 9998 2 25544 51.6431 298.9383 0005137 133.8005 321.1161 15.49970022436535 CXO 1 25867U 99040B 24027.71675503 .00000624 00000-0 00000+0 0 9990 2 25867 38.5126 168.4056 8999355 285.5718 0.1832 0.37808521 25183 ...Continue Reading

[TLELIST] Current TLEs

January 27th 2024 PST

HST 1 20580U 90037B 24026.79034837 .00006201 00000-0 30715-3 0 9997 2 20580 28.4667 217.6279 0002353 294.7985 65.2362 15.15700529655657 ISS (ZARYA) 1 25544U 98067A 24027.19735782 .00020113 00000-0 35977-3 0 9998 2 25544 51.6431 298.9383 0005137 133.8005 321.1161 15.49970022436535 CXO 1 25867U 99040B 24027.71675503 .00000624 00000-0 00000+0 0 9990 2 25867 38.5126 168.4056 8999355 285.5718 0.1832 0.37808521 25183 ...Continue Reading

[TLELIST] Current TLEs

January 26th 2024 PST

HST 1 20580U 90037B 24025.86851643 .00006533 00000-0 32420-3 0 9999 2 20580 28.4665 223.7855 0002295 279.3404 80.6929 15.15691087655257 ISS (ZARYA) 1 25544U 98067A 24026.23068080 .00025200 00000-0 44884-3 0 9991 2 25544 51.6422 303.7200 0005197 134.1814 323.3146 15.49944301436387 CXO 1 25867U 99040B 24025.07214892 .00000543 00000-0 00000-0 0 9998 2 25867 38.4747 168.7210 9001797 285.3113 0.1878 0.37805963 14026 ...Continue Reading

[TLELIST] Current TLEs

January 26th 2024 PST

HST 1 20580U 90037B 24025.86851643 .00006533 00000-0 32420-3 0 9999 2 20580 28.4665 223.7855 0002295 279.3404 80.6929 15.15691087655257 ISS (ZARYA) 1 25544U 98067A 24026.23068080 .00025200 00000-0 44884-3 0 9991 2 25544 51.6422 303.7200 0005197 134.1814 323.3146 15.49944301436387 CXO 1 25867U 99040B 24025.07214892 .00000543 00000-0 00000-0 0 9998 2 25867 38.4747 168.7210 9001797 285.3113 0.1878 0.37805963 14026 ...Continue Reading

[TLELIST] Current TLEs

January 25th 2024 PST

HST 1 20580U 90037B 24024.94667917 .00006381 00000-0 31652-3 0 9993 2 20580 28.4664 229.9426 0002194 266.0618 93.9723 15.15680148655374 ISS (ZARYA) 1 25544U 98067A 24025.20195946 .00025817 00000-0 46043-3 0 9992 2 25544 51.6428 308.8142 0004911 128.6675 345.0839 15.49894888436227 CXO 1 25867U 99040B 24025.07214892 .00000543 00000-0 00000-0 0 9998 2 25867 38.4747 168.7210 9001797 285.3113 0.1878 0.37805963 14026 ...Continue Reading

[TLELIST] Current TLEs

January 25th 2024 PST

HST 1 20580U 90037B 24024.94667917 .00006381 00000-0 31652-3 0 9993 2 20580 28.4664 229.9426 0002194 266.0618 93.9723 15.15680148655374 ISS (ZARYA) 1 25544U 98067A 24025.20195946 .00025817 00000-0 46043-3 0 9992 2 25544 51.6428 308.8142 0004911 128.6675 345.0839 15.49894888436227 CXO 1 25867U 99040B 24025.07214892 .00000543 00000-0 00000-0 0 9998 2 25867 38.4747 168.7210 9001797 285.3113 0.1878 0.37805963 14026 ...Continue Reading

[TLELIST] Current TLEs

January 24th 2024 PST

HST 1 20580U 90037B 24022.97129220 .00006258 00000-0 31046-3 0 9994 2 20580 28.4672 243.1365 0002223 244.1327 115.9035 15.15655275654812 ISS (ZARYA) 1 25544U 98067A 24024.30477502 .00025731 00000-0 45968-3 0 9993 2 25544 51.6430 313.2601 0005044 124.9347 19.6351 15.49847701436082 CXO 1 25867U 99040B 24025.07214892 .00000543 00000-0 00000-0 0 9998 2 25867 38.4747 168.7210 9001797 285.3113 0.1878 0.37805963 14026 ...Continue Reading

[TLELIST] Current TLEs

January 23rd 2024 PST

HST 1 20580U 90037B 24022.97129220 .00006258 00000-0 31046-3 0 9994 2 20580 28.4672 243.1365 0002223 244.1327 115.9035 15.15655275655071 ISS (ZARYA) 1 25544U 98067A 24023.33753979 .00025415 00000-0 45497-3 0 9996 2 25544 51.6425 318.0500 0005081 119.0583 25.3892 15.49796280435937 CXO 1 25867U 99040B 24025.07214892 .00000543 00000-0 00000-0 0 9998 2 25867 38.4747 168.7210 9001797 285.3113 0.1878 0.37805963 14026 ...Continue Reading

[TLELIST] Current TLEs

January 22nd 2024 PST

HST 1 20580U 90037B 24021.91773966 .00006130 00000-0 30406-3 0 9997 2 20580 28.4682 250.1725 0002227 233.6583 126.3804 15.15641849654656 ISS (ZARYA) 1 25544U 98067A 24022.37051078 .00024539 00000-0 44042-3 0 9991 2 25544 51.6431 322.8396 0005033 117.7562 27.8997 15.49743990435785 CXO 1 25867U 99040B 24019.78299550 .00000376 00000-0 00000+0 0 9996 2 25867 38.3920 169.3952 9004742 284.7509 0.2576 0.37810394 25159 ...Continue Reading

[TLELIST] Current TLEs

January 21st 2024 PST

HST 1 20580U 90037B 24021.08471356 .00006528 00000-0 32451-3 0 9996 2 20580 28.4682 255.7356 0002327 222.3278 263.4176 15.15632472654785 ISS (ZARYA) 1 25544U 98067A 24021.33698155 .00025877 00000-0 46473-3 0 9995 2 25544 51.6423 327.9609 0005057 112.9088 22.8885 15.49694343435626 CXO 1 25867U 99040B 24019.78299550 .00000376 00000-0 00000+0 0 9996 2 25867 38.3920 169.3952 9004742 284.7509 0.2576 0.37810394 25159 ...Continue Reading
  • This mailing list is a public mailing list - anyone may join or leave, at any time.
  • This mailing list is announce-only.

International Space Station (ISS) / Hubble Space Telescope (HST) / Chandra X-Ray Observatory Orbital Data via EMAIL

Privacy Policy:

Private list